Regional Weather Roundup
Issued by NWS

Home | Current Version | Previous Version | Graphics & Text | Print | Product List | Glossary On
Versions: 1 2 3 4 5 6 7 8 9 10 11 12 13 14 15 16 17 18 19 20 21 22 23 24 25 26 27 28 29 30 31 32 33 34 35 36 37 38 39 40 41 42 43 44 45 46 47 48 49 50
979
ASUS44 KJAN 010403
RWRMS

MISSISSIPPI HOURLY WEATHER ROUNDUP
NATIONAL WEATHER SERVICE JACKSON MS
1100 PM CDT THU JUL 31 2014

NOTE: "FAIR: INDICATES FEW OR NO CLOUDS BELOW 12,000 FEET WITH NO
SIGNIFICANT WEATHER AND/OR OBSTRUCTIONS TO VISIBILITY.

MSZ001>002-007>008-010>013-018>021-025>028-034>036-010500-
NORTHWEST MISSISSIPPI

CITY           SKY/WX    TMP DP  RH WIND       PRES   REMARKS
CLARKSDALE     CLOUDY    70  70 100 N6        30.06S
CLEVELAND      FAIR      72  70  93 NE6       30.03F
GREENWOOD      PTCLDY    69  68  96 CALM      30.03S FOG
GREENVILLE     CLOUDY    72  70  93 N3        30.03S FOG
GRENADA        FAIR      70  66  88 N3        30.05R
OLIVE BRANCH   PTCLDY    72  70  94 CALM      30.06F
OXFORD         FAIR      70  66  88 CALM      30.07F
TUNICA         CLOUDY    70  64  83 N5        30.06F
$$

MSZ003>006-009-014>017-022>024-029>033-037>039-010500-
NORTHEAST MISSISSIPPI

CITY           SKY/WX    TMP DP  RH WIND       PRES   REMARKS
BELMONT        FAIR      67  65  94 CALM      30.06S
COLUMBUS AFB   NOT AVBL
CORINTH          N/A     66  64  94 CALM      30.06R FOG
GOLDN TRIANGLE PTCLDY    72  63  73 NE3       30.04F
STARKVILLE     FAIR      66  63  88 CALM      30.04S
TUPELO         PTCLDY    72  66  81 CALM      30.05R
$$

MSZ040-058-010500-
CENTRAL MISSISSIPPI

CITY           SKY/WX    TMP DP  RH WIND       PRES   REMARKS
JACKSON INTL   CLOUDY    74  67  78 NE3       30.02S
JACKSON HAWKNS CLOUDY    74  64  71 CALM      30.03S
MERIDIAN KEY   PTCLDY    72  62  71 CALM      30.03S
MERIDIAN NAS   MOCLDY    68  63  84 CALM      30.03F
RAYMOND        FAIR      70  64  83 CALM      30.03S HAZE
VICKSBURG      CLOUDY    74  68  81 E5        30.02R
$$

MSZ059>079-010500-
SOUTH MISSISSIPPI

CITY           SKY/WX    TMP DP  RH WIND       PRES   REMARKS
BROOKHAVEN     FAIR      68  66  94 CALM      30.05R
COLUMBIA       FAIR      70  68  94 CALM      30.01R
HATTIESBURG    CLEAR     71  68  90 CALM      30.03R
MCCOMB         MOCLDY    73  64  73 CALM      30.02R
NATCHEZ        CLOUDY    73  64  73 E5        30.02R
PINE BELT      PTCLDY    70  64  83 CALM      30.03S
$$

MSZ080>082-010500-
COASTAL MISSISSIPPI

CITY           SKY/WX    TMP DP  RH WIND       PRES   REMARKS
BILOXI         NOT AVBL
PASCAGOULA     PTCLDY    70  67  90 CALM      30.00S
GULFPORT       CLEAR     80  66  62 NE3       30.00R
$$



USA.gov is the U.S. government's official web portal to all federal, state and local government web resources and services.